Ballenas Island, British Columbia

5:13 PM PDT on July 23, 2017 (GMT -0700)
Ballenas Island

Weather History for CWGB - October, 2013

Change the Weather History Date:

Monday, October 14, 2013

  Actual Average Record
Temperature  
Mean Temperature 50 °F -  
Max Temperature 54 °F - - ()
Min Temperature 47 °F - - ()
Degree Days  
Heating Degree Days 14    
Moisture  
Dew Point 46 °F    
Average Humidity 84    
Maximum Humidity 89    
Minimum Humidity 74    
Precipitation  
Precipitation 0.00 in - - ()
Sea Level Pressure  
Sea Level Pressure 30.39 in    
Wind  
Wind Speed 8 mph ()    
Max Wind Speed 12 mph    
Max Gust Speed -    
T = Trace of Precipitation, MM = Missing Value Source: Averaged Metar Reports

Daily Weather History Graph

Daily Weather History Graph

Search for Another Location

Airport or City:

Trip Planner

Search our weather history database for the weather conditions in past years. The results will help you decide how hot, cold, wet, or windy it might be!

Date:

Astronomy

Oct. 14, 2013 Rise Set
Actual Time 7:36 AM PDT 6:27 PM PDT
Civil Twilight 7:04 AM PDT 6:59 PM PDT
Nautical Twilight 6:27 AM PDT 7:36 PM PDT
Astronomical Twilight 5:50 AM PDT 8:13 PM PDT
Moon 4:19 PM PDT (10/14) 2:36 AM PDT (10/14)
Length of Visible Light 11h 55m
Length of Day
10h 50m
Waxing Gibbous, 80% of the Moon is Illuminated
Oct 14
Waxing Gibbous
Oct 18
Full
Oct 26
Last Quarter
Nov 3
New
Nov 9
First Quarter

Hourly Weather History & Observations

Time (PDT) Temp. Dew Point Humidity Pressure Visibility Wind Dir Wind Speed Gust Speed Precip Events Conditions
12:00 AM 49.3 °F 44.2 °F 83% 30.36 in - WSW 5.8 mph - N/A   Unknown
1:00 AM 48.7 °F 43.5 °F 82% 30.36 in - SW 6.9 mph - N/A   Unknown
2:00 AM 48.7 °F 44.1 °F 84% 30.37 in - WSW 8.1 mph - N/A   Unknown
3:00 AM 48.6 °F 44.4 °F 86% 30.38 in - WSW 9.2 mph - N/A   Unknown
4:00 AM 48.2 °F 44.1 °F 86% 30.38 in - WSW 8.1 mph - N/A   Unknown
5:00 AM 48 °F 44 °F 81% 30.38 in - WSW 9.2 mph - -  
5:00 AM 47.8 °F 43.9 °F 86% 30.38 in - WSW 9.2 mph - N/A   Unknown
6:00 AM 48.7 °F 45.1 °F 87% 30.39 in - WSW 10.4 mph - N/A   Unknown
7:00 AM 48.4 °F 45.1 °F 89% 30.40 in - WSW 11.5 mph - N/A   Unknown
8:00 AM 47.8 °F 44.6 °F 89% 30.40 in - WSW 11.5 mph - N/A   Unknown
9:00 AM 48.2 °F 44.6 °F 87% 30.42 in - WSW 11.5 mph - N/A   Unknown
10:00 AM 49.5 °F 45.7 °F 87% 30.43 in - WNW 11.5 mph - N/A   Unknown
11:00 AM 50 °F 45 °F 78% 30.43 in - West 10.4 mph - -  
11:00 AM 49.6 °F 45.3 °F 85% 30.43 in - West 10.4 mph - N/A   Unknown
12:00 PM 49.6 °F 45.1 °F 84% 30.43 in - West 10.4 mph - N/A   Unknown
1:00 PM 50.4 °F 45.7 °F 84% 30.42 in - WNW 10.4 mph - N/A   Unknown
2:00 PM 50.9 °F 46.2 °F 84% 30.41 in - West 11.5 mph - N/A   Unknown
3:00 PM 52.2 °F 46.8 °F 82% 30.39 in - West 10.4 mph - N/A   Unknown
4:00 PM 52.9 °F 46.6 °F 79% 30.38 in - West 11.5 mph - N/A   Unknown
5:00 PM 53 °F 47 °F 74% 30.37 in - WNW 11.5 mph - -  
5:00 PM 53.2 °F 47.1 °F 80% 30.37 in - WNW 11.5 mph - N/A   Unknown
6:00 PM 52.9 °F 47.3 °F 81% 30.36 in - West 9.2 mph - N/A   Unknown
7:00 PM 52.3 °F 47.5 °F 84% 30.37 in - West 9.2 mph - N/A   Unknown
8:00 PM 52.2 °F 48.0 °F 86% 30.37 in - West 8.1 mph - N/A   Unknown
9:00 PM 50.7 °F 46.9 °F 87% 30.37 in - WSW 8.1 mph - N/A   Unknown
10:00 PM 50.9 °F 47.7 °F 89% 30.38 in - West 6.9 mph - N/A   Unknown
11:00 PM 51 °F 47 °F 83% 30.38 in - West 8.1 mph - -  
11:00 PM 51.4 °F 47.5 °F 86% 30.38 in - West 8.1 mph - N/A   Unknown